Terminal Aerodrome Forecast
Issued by NWS Blacksburg, VA

Current Version | Previous Version | Text Only | Print | Product List | Glossary Off
Versions: 1 2 3 4 5 6 7 8 9 10 11 12 13 14 15 16 17 18 19 20 21 22 23 24 25 26 27 28 29 30 31 32 33 34 35 36 37 38 39 40 41 42 43 44 45 46 47 48 49 50

971
FTUS41 KRNK 021937 AAB
TAFBLF
TAF AMD
KBLF 021937Z 0220/0318 25006KT P6SM VCTS SCT030CB BKN070
     FM022100 27010G20KT 4SM -TSRA OVC025CB
     FM030000 VRB05KT 4SM SHRA BR VCTS BKN015 OVC025CB
     FM030600 29004KT 4SM BR VCSH OVC013
     FM031600 28009KT P6SM SCT007 OVC015=

USA.gov is the U.S. government's official web portal to all federal, state and local government web resources and services.